Weather History for Monroe, NC

Change the Weather History Date:

Saturday, January 12, 2013

  Actual Average (KCLT) Record (KCLT)
Temperature  
Mean Temperature 62 °F 40 °F  
Max Temperature 75 °F 50 °F 75 °F (1890)
Min Temperature 50 °F 29 °F -1 °F (1886)
Degree Days  
Heating Degree Days 2 25  
Month to date heating degree days 300  
Since 1 July heating degree days 1637  
Cooling Degree Days 0 0  
Month to date cooling degree days 0  
Year to date cooling degree days 0  
Growing Degree Days 12 (Base 50)    
Moisture  
Dew Point 57 °F    
Average Humidity 90    
Maximum Humidity 100    
Minimum Humidity 53    
Precipitation  
Precipitation 0.00 in 0.11 in 2.22 in (1879)
Month to date precipitation 1.35  
Year to date precipitation 1.35  
Snow  
Snow 0.00 in 0.10 in 2.50 in (1893)
Month to date snowfall 0.7  
Since 1 July snowfall 1.1  
Snow Depth -    
Sea Level Pressure  
Sea Level Pressure 30.15 in    
Wind  
Wind Speed 3 mph (SW)    
Max Wind Speed 12 mph    
Max Gust Speed -    
Visibility 5 miles    
Events Fog , Rain    
T = Trace of Precipitation, MM = Missing Value Source: NWS Daily Summary

Daily Weather History Graph

Daily Weather History Graph

Search for Another Location

Airport:

Trip Planner

Search our weather history database for the weather conditions in past years. The results will help you decide how hot, cold, wet, or windy it might be!

Date:

Astronomy

Jan. 12, 2013 Rise Set
Actual Time 7:30 AM EST 5:31 PM EST
Civil Twilight 7:03 AM EST 5:59 PM EST
Nautical Twilight 6:31 AM EST 6:30 PM EST
Astronomical Twilight 6:01 AM EST 7:00 PM EST
Moon 7:52 AM EST (1/12) 6:54 PM EST (1/12)
Length of Visible Light 10h 56m
Length of Day
10h 00m
New Moon, 1% of the Moon is Illuminated
Jan 12
New Moon
Jan 18
First Quarter
Jan 26
Full
Feb 3
Last Quarter
Feb 10
New

Hourly Weather History & Observations

Time (EST) Temp. Dew Point Humidity Pressure Visibility Wind Dir Wind Speed Gust Speed Precip Events Conditions
12:38 AM 51.8 °F 51.8 °F 100% 30.15 in 2.5 mi Calm Calm - N/A   Scattered Clouds
12:42 AM 51.8 °F 51.8 °F 100% 30.15 in 2.0 mi Calm Calm - N/A   Mostly Cloudy
12:46 AM 51.8 °F 51.8 °F 100% 30.15 in 0.8 mi Calm Calm - N/A   Mostly Cloudy
12:53 AM 50.0 °F 48.9 °F 96% 30.19 in 0.2 mi NE 3.5 mph - N/A Fog Fog
1:10 AM 51.8 °F 51.8 °F 100% 30.15 in 1.0 mi NE 5.8 mph - N/A   Overcast
1:28 AM 51.8 °F 51.8 °F 100% 30.15 in 2.0 mi Calm Calm - N/A   Overcast
1:35 AM 51.8 °F 50.0 °F 94% 30.15 in 1.8 mi Calm Calm - N/A   Overcast
1:43 AM 51.8 °F 50.0 °F 94% 30.15 in 2.5 mi Calm Calm - N/A   Overcast
1:53 AM 51.1 °F 51.1 °F 100% 30.19 in 1.0 mi Calm Calm - N/A   Overcast
1:58 AM 51.8 °F 51.8 °F 100% 30.15 in 0.5 mi Calm Calm - N/A Fog Fog
3:53 AM 52.0 °F 51.1 °F 97% 30.18 in 0.2 mi SW 3.5 mph - N/A Fog Fog
4:53 AM 55.0 °F 55.0 °F 100% 30.15 in 0.2 mi SSW 5.8 mph - N/A Fog Fog
5:35 AM 57.2 °F 57.2 °F 100% 30.12 in 1.0 mi SSW 4.6 mph - N/A   Overcast
5:46 AM 59.0 °F 57.2 °F 94% 30.12 in 2.5 mi SSW 5.8 mph - N/A   Overcast
5:53 AM 59.0 °F 57.9 °F 96% 30.15 in 2.5 mi SW 8.1 mph - N/A   Overcast
6:22 AM 57.2 °F 57.2 °F 100% 30.13 in 0.8 mi West 3.5 mph - N/A   Overcast
6:30 AM 57.2 °F 57.2 °F 100% 30.13 in 0.5 mi West 4.6 mph - N/A Fog Fog
6:53 AM 55.9 °F 55.9 °F 100% 30.17 in 0.2 mi WNW 3.5 mph - N/A Fog Fog
7:53 AM 57.9 °F 57.9 °F 100% 30.19 in 0.2 mi SW 8.1 mph - N/A Fog Fog
8:34 AM 59.0 °F 59.0 °F 100% 30.16 in 1.0 mi SW 6.9 mph - N/A   Overcast
8:53 AM 59.0 °F 59.0 °F 100% 30.20 in 1.8 mi WSW 4.6 mph - N/A   Overcast
9:03 AM 60.8 °F 59.0 °F 94% 30.17 in 2.5 mi WSW 5.8 mph - N/A   Overcast
9:10 AM 60.8 °F 60.8 °F 100% 30.17 in 3.0 mi WSW 6.9 mph - N/A   Overcast
9:25 AM 60.8 °F 60.8 °F 100% 30.17 in 4.0 mi SW 8.1 mph - N/A   Mostly Cloudy
9:38 AM 60.8 °F 60.8 °F 100% 30.17 in 5.0 mi WSW 8.1 mph - N/A   Scattered Clouds
9:53 AM 62.1 °F 61.0 °F 96% 30.20 in 7.0 mi WSW 8.1 mph - N/A   Clear
10:53 AM 66.0 °F 62.1 °F 87% 30.19 in 10.0 mi WSW 10.4 mph - N/A   Clear
11:53 AM 69.1 °F 62.1 °F 78% 30.16 in 10.0 mi SW 6.9 mph - 0.00 in Rain Light Rain
12:53 PM 73.0 °F 61.0 °F 66% 30.14 in 10.0 mi SW 11.5 mph - 0.00 in   Clear
1:53 PM 75.0 °F 59.0 °F 57% 30.13 in 10.0 mi SW 10.4 mph - N/A   Clear
2:53 PM 75.0 °F 57.0 °F 53% 30.13 in 10.0 mi WSW 10.4 mph - N/A   Clear
3:53 PM 75.0 °F 57.0 °F 53% 30.13 in 10.0 mi West 8.1 mph - N/A   Clear
4:53 PM 73.0 °F 57.0 °F 57% 30.13 in 10.0 mi WSW 6.9 mph - N/A   Clear
5:53 PM 69.1 °F 59.0 °F 70% 30.13 in 10.0 mi SW 5.8 mph - N/A   Clear
6:53 PM 66.9 °F 59.0 °F 76% 30.13 in 10.0 mi South 3.5 mph - N/A   Clear
7:53 PM 64.0 °F 59.0 °F 84% 30.13 in 10.0 mi Calm Calm - N/A   Clear
8:53 PM 62.1 °F 59.0 °F 90% 30.12 in 10.0 mi Calm Calm - N/A   Partly Cloudy
9:53 PM 61.0 °F 59.0 °F 93% 30.13 in 10.0 mi Calm Calm - N/A   Mostly Cloudy
10:53 PM 57.9 °F 57.0 °F 97% 30.13 in 6.0 mi Calm Calm - N/A   Clear
11:53 PM 60.1 °F 57.0 °F 90% 30.12 in 10.0 mi South 3.5 mph - N/A   Clear